Shawnee, OK

3:03 PM CST on January 23, 2018 (GMT -0600)
Shawnee Municipal

Weather History for KSNL - November, 2013

Change the Weather History Date:

Friday, November 29, 2013

  Actual Average (KTIK) Record (KTIK)
Temperature  
Mean Temperature 46 °F -  
Max Temperature 60 °F 53 °F 74 °F (2014)
Min Temperature 32 °F 35 °F 23 °F (2001)
Degree Days  
Heating Degree Days 19    
Moisture  
Dew Point 34 °F    
Average Humidity 54    
Maximum Humidity 81    
Minimum Humidity 36    
Precipitation  
Precipitation 0.00 in - - ()
Sea Level Pressure  
Sea Level Pressure 30.35 in    
Wind  
Wind Speed 7 mph (South)    
Max Wind Speed 12 mph    
Max Gust Speed 16 mph    
Visibility 10 miles    
Events      
Averages and records for this station are not official NWS values.
T = Trace of Precipitation, MM = Missing Value Source: NWS Daily Summary

Daily Weather History Graph

Daily Weather History Graph

Search for Another Location

Airport or City:

Trip Planner

Search our weather history database for the weather conditions in past years. The results will help you decide how hot, cold, wet, or windy it might be!

Date:

Astronomy

Nov. 29, 2013 Rise Set
Actual Time 7:16 AM CST 5:15 PM CST
Civil Twilight 6:48 AM CST 5:43 PM CST
Nautical Twilight 6:17 AM CST 6:14 PM CST
Astronomical Twilight 5:46 AM CST 6:45 PM CST
Moon 3:30 AM CST (11/29) 2:54 PM CST (11/29)
Length of Visible Light 10h 54m
Length of Day
9h 58m
Waning Crescent, 14% of the Moon is Illuminated
Nov 29
Waning Crescent
Dec 2
New
Dec 9
First Quarter
Dec 17
Full
Dec 25
Last Quarter

Hourly Weather History & Observations

Time (CST) Temp. Windchill Dew Point Humidity Pressure Visibility Wind Dir Wind Speed Gust Speed Precip Events Conditions
1:55 AM 35.6 °F 32.8 °F 28.4 °F 75% 30.44 in 10.0 mi South 3.5 mph - N/A   Clear
2:15 AM 35.6 °F 32.8 °F 28.4 °F 75% 30.44 in 10.0 mi South 3.5 mph - N/A   Scattered Clouds
3:15 AM 33.8 °F 30.8 °F 26.6 °F 75% 30.45 in 10.0 mi South 3.5 mph - N/A   Clear
3:35 AM 33.8 °F - 28.4 °F 81% 30.45 in 10.0 mi Calm Calm - N/A   Clear
3:55 AM 32.0 °F - 26.6 °F 80% 30.45 in 10.0 mi Calm Calm - N/A   Clear
8:55 AM 39.2 °F 35.0 °F 33.8 °F 81% 30.47 in 10.0 mi South 5.8 mph - N/A   Clear
9:55 AM 44.6 °F 40.7 °F 33.8 °F 66% 30.47 in 10.0 mi South 6.9 mph - N/A   Clear
10:15 AM 46.4 °F 42.4 °F 35.6 °F 66% 30.46 in 10.0 mi South 8.1 mph - N/A   Clear
10:35 AM 50.0 °F - 35.6 °F 58% 30.46 in 10.0 mi SSE 6.9 mph - N/A   Clear
10:55 AM 51.8 °F - 35.6 °F 54% 30.46 in 10.0 mi South 8.1 mph - N/A   Clear
11:15 AM 53.6 °F - 35.6 °F 51% 30.45 in 10.0 mi South 6.9 mph - N/A   Clear
11:35 AM 55.4 °F - 35.6 °F 47% 30.44 in 10.0 mi South 9.2 mph - N/A   Clear
11:55 AM 55.4 °F - 33.8 °F 44% 30.43 in 10.0 mi South 8.1 mph - N/A   Clear
12:15 PM 57.2 °F - 35.6 °F 44% 30.42 in 10.0 mi South 5.8 mph - N/A   Clear
12:55 PM 59.0 °F - 35.6 °F 42% 30.38 in 10.0 mi South 8.1 mph - N/A   Clear
1:15 PM 60.8 °F - 33.8 °F 36% 30.37 in 10.0 mi SSW 9.2 mph - N/A   Clear
1:35 PM 60.8 °F - 33.8 °F 36% 30.36 in 10.0 mi South 9.2 mph - N/A   Clear
1:55 PM 60.8 °F - 33.8 °F 36% 30.35 in 10.0 mi SSW 9.2 mph - N/A   Clear
2:15 PM 60.8 °F - 33.8 °F 36% 30.34 in 10.0 mi South 8.1 mph - N/A   Clear
2:35 PM 60.8 °F - 33.8 °F 36% 30.33 in 10.0 mi South 11.5 mph - N/A   Clear
2:55 PM 60.8 °F - 33.8 °F 36% 30.32 in 10.0 mi South 10.4 mph - N/A   Clear
3:15 PM 60.8 °F - 33.8 °F 36% 30.31 in 10.0 mi South 11.5 mph - N/A   Clear
3:35 PM 60.8 °F - 33.8 °F 36% 30.30 in 10.0 mi South 10.4 mph - N/A   Clear
3:55 PM 60.8 °F - 33.8 °F 36% 30.30 in 10.0 mi South 10.4 mph - N/A   Clear
4:15 PM 60.8 °F - 35.6 °F 39% 30.30 in 10.0 mi South 9.2 mph - N/A   Clear
4:35 PM 59.0 °F - 33.8 °F 39% 30.30 in 10.0 mi South 9.2 mph - N/A   Clear
4:55 PM 57.2 °F - 33.8 °F 41% 30.30 in 10.0 mi South 9.2 mph - N/A   Clear
5:15 PM 55.4 °F - 33.8 °F 44% 30.29 in 10.0 mi South 8.1 mph - N/A   Clear
5:35 PM 53.6 °F - 32.0 °F 44% 30.29 in 10.0 mi South 5.8 mph - N/A   Clear
5:55 PM 51.8 °F - 33.8 °F 50% 30.29 in 10.0 mi South 6.9 mph - N/A   Clear
6:15 PM 51.8 °F - 33.8 °F 50% 30.29 in 10.0 mi SSE 6.9 mph - N/A   Clear
6:35 PM 51.8 °F - 35.6 °F 54% 30.29 in 10.0 mi SSE 8.1 mph - N/A   Clear
6:55 PM 51.8 °F - 35.6 °F 54% 30.30 in 10.0 mi SSE 8.1 mph - N/A   Clear
7:15 PM 51.8 °F - 35.6 °F 54% 30.30 in 10.0 mi SSE 9.2 mph - N/A   Clear
7:35 PM 51.8 °F - 35.6 °F 54% 30.30 in 10.0 mi South 10.4 mph - N/A   Clear
7:55 PM 51.8 °F - 35.6 °F 54% 30.30 in 10.0 mi South 9.2 mph - N/A   Clear
8:15 PM 50.0 °F - 35.6 °F 58% 30.29 in 10.0 mi South 10.4 mph - N/A   Clear
8:35 PM 48.2 °F - 35.6 °F 62% 30.29 in 10.0 mi South 10.4 mph - N/A   Clear
8:55 PM 48.2 °F - 35.6 °F 62% 30.29 in 10.0 mi South 9.2 mph - N/A   Clear
9:15 PM 48.2 °F - 35.6 °F 62% 30.29 in 10.0 mi South 10.4 mph - N/A   Clear
9:35 PM 48.2 °F - 35.6 °F 62% 30.29 in 10.0 mi South 10.4 mph 16.1 mph N/A   Clear
9:55 PM 48.2 °F - 35.6 °F 62% 30.30 in 10.0 mi South 9.2 mph - N/A   Clear
10:15 PM 48.2 °F - 35.6 °F 62% 30.29 in 10.0 mi South 10.4 mph - N/A   Clear
10:35 PM 48.2 °F - 35.6 °F 62% 30.29 in 10.0 mi South 9.2 mph - N/A   Clear
10:55 PM 48.2 °F - 35.6 °F 62% 30.29 in 10.0 mi South 9.2 mph - N/A   Clear
11:15 PM 46.4 °F 42.9 °F 35.6 °F 66% 30.29 in 10.0 mi South 6.9 mph - N/A   Clear
11:35 PM 46.4 °F 42.4 °F 35.6 °F 66% 30.29 in 10.0 mi South 8.1 mph - N/A   Clear
11:55 PM 44.6 °F 40.2 °F 35.6 °F 71% 30.29 in 10.0 mi South 8.1 mph - N/A   Clear